Location: Wangen+im+Allg�u
(47.7098°N, 9.8383°E)
Time: 05:18:44
(UTC+02:00)

ISS - Pass Details

Date: 06 January 2018
Orbit: 402 x 409 km, 51.6° (Epoch: 17 August)

Event Time Altitude Azimuth Distance (km) Brightness Sun altitude
Exits shadow 06:52:53 20° 304° (NW) 1,036 -2.4 -12.2°
Maximum altitude 06:54:53 45° 9° (N) 592 -3.1 -11.9°
Drops below altitude 10° 06:58:11 10° 83° (E) 1,516 0.1 -11.4°
Sets 07:00:21 0° 90° (E) 2,383 1.5 -11.0°
